Wind_Speed
20 19 18 16 14 12 13 13 13 12 11 12 13 15 16 16 16 15 13 13 10 8 8 8 8 9 10 11 13 14 14 15 15 14 13 13 13 13 12 12 12 12 12 12 11 10 10 9 8
21 20 19 17 14 13 14 15 14 12 12 13 16 17 17 16 15 14 13 12 10 10 10 10 10 10 11 12 14 15 15 16 16 15 15 14 14 13 13 13 13 13 13 13 12 12 11 10 9
21 20 20 17 14 14 17 17 16 12 12 14 17 18 18 16 14 14 13 12 11 11 11 11 11 12 13 13 15 16 16 16 16 16 16 15 15 14 15 15 15 14 14 14 14 13 12 11 10
21 21 20 17 14 16 18 17 16 13 12 16 19 20 19 17 15 13 12 12 12 12 12 12 12 13 14 15 16 17 17 18 18 18 17 17 16 16 16 16 16 15 15 15 15 14 13 12 11
21 21 20 16 15 17 19 18 17 14 13 17 20 22 22 19 17 14 14 13 13 13 13 13 14 14 15 16 17 18 18 19 19 19 19 19 18 18 18 17 17 16 16 16 15 15 14 13 12
21 21 19 17 17 20 21 20 18 16 15 19 22 24 23 20 18 16 15 14 15 14 14 15 15 16 17 17 18 19 20 20 21 21 20 20 19 19 19 18 18 17 17 17 16 15 14 14 13
21 20 18 18 20 22 22 21 18 17 18 22 25 26 25 22 21 19 16 15 16 16 16 16 16 16 18 19 19 20 20 21 22 22 22 21 21 20 20 20 19 18 18 17 17 16 15 14 14
20 19 18 19 22 24 23 20 19 19 22 25 28 29 27 25 23 20 19 18 18 18 18 17 17 18 18 19 20 20 20 21 22 22 22 22 22 22 21 20 20 19 19 18 18 17 17 16 15
19 17 17 20 24 25 24 21 21 22 24 27 29 31 30 28 25 24 22 20 19 20 20 20 20 19 19 19 20 21 21 21 22 22 23 23 23 23 22 21 20 20 20 19 19 19 18 17 16
18 16 17 22 26 26 23 21 21 22 24 26 28 30 30 29 28 26 24 21 21 22 22 23 22 21 20 20 20 21 21 21 22 23 24 24 24 23 23 21 21 21 21 20 20 20 19 18 18
17 16 19 23 25 25 23 22 22 23 24 26 27 29 29 28 28 28 25 23 22 23 24 25 24 23 21 21 21 21 22 22 22 23 24 24 25 24 24 23 23 23 22 22 22 21 21 20 19
18 18 21 23 24 24 23 23 24 25 25 26 27 28 28 28 28 27 25 23 23 24 25 27 25 23 24 23 22 23 23 23 25 25 25 25 25 25 25 24 25 25 25 24 23 22 22 21 21
18 19 21 23 23 22 21 23 24 25 26 27 27 26 27 27 27 27 27 26 25 25 26 26 25 25 25 25 24 24 25 25 26 26 25 25 25 25 26 26 27 26 26 26 25 24 22 22 22
17 18 19 20 20 20 21 22 24 25 26 27 28 28 28 28 28 28 28 28 27 27 28 27 27 26 26 26 27 27 27 27 26 26 26 26 25 24 25 26 27 27 27 26 26 25 24 22 23
16 15 15 15 16 17 19 21 23 24 25 26 28 29 29 29 29 29 30 29 29 28 28 28 27 27 26 26 27 27 26 27 27 27 28 26 26 25 25 26 26 26 27 27 26 26 26 24 23
14 12 12 13 13 14 16 17 19 21 23 24 25 27 29 29 29 30 30 31 31 31 29 28 28 27 26 26 26 26 26 26 26 26 26 25 24 25 24 24 24 25 25 26 26 24 25 25 24
13 11 11 12 12 13 15 15 17 18 19 21 23 24 25 27 28 30 30 31 31 31 30 30 30 29 27 26 25 24 25 25 25 24 23 23 23 23 23 23 23 24 25 25 25 24 24 24 23
11 11 12 13 12 13 14 15 17 18 20 21 22 23 24 26 27 29 30 31 31 30 30 31 31 29 28 28 28 26 26 24 24 23 20 20 20 20 21 21 23 23 24 24 25 25 25 24 24
12 12 13 12 12 14 14 16 18 19 21 22 23 25 25 26 27 28 29 30 30 30 30 31 31 29 29 29 30 30 28 26 25 22 20 19 19 19 19 20 21 23 24 24 24 24 24 24 25
13 13 11 11 12 16 17 18 19 21 22 23 24 25 26 27 28 28 29 30 30 30 30 31 31 31 31 31 31 30 30 28 25 23 20 20 19 20 20 20 21 23 23 23 24 24 25 25 25
13 13 12 12 13 17 19 21 21 23 23 24 24 24 25 25 25 27 28 28 30 30 31 31 31 31 32 32 31 31 29 28 27 25 22 21 21 21 20 19 19 20 22 22 22 22 25 26 26
12 12 12 13 14 16 19 20 20 23 24 24 24 24 23 23 24 25 27 28 29 30 30 30 31 31 32 32 32 31 29 28 26 25 24 22 21 20 20 19 18 20 21 21 22 22 23 25 26
11 12 12 14 15 16 18 20 20 23 23 23 23 23 24 24 24 25 26 27 28 30 31 31 31 31 31 31 31 31 30 29 28 26 25 25 24 23 22 21 19 19 21 21 22 23 24 24 26
11 12 13 13 14 16 17 20 20 21 22 22 22 22 23 24 24 24 24 25 27 28 29 30 30 31 30 31 31 31 30 29 27 26 26 26 25 24 23 22 22 21 22 22 22 23 24 25 26
11 12 12 12 12 13 15 18 19 18 19 20 21 21 21 21 22 23 24 24 25 26 27 28 29 30 30 31 30 30 30 29 29 28 27 26 26 26 25 24 24 23 23 23 23 23 25 26 27
10 11 12 13 13 12 13 17 17 17 17 17 17 17 18 19 19 20 21 23 23 23 24 26 27 28 28 29 29 29 29 28 28 28 28 27 26 26 26 25 25 24 24 24 24 25 26 27 28
11 11 11 12 12 13 15 16 17 17 16 15 16 16 18 19 18 18 19 20 21 22 23 24 25 26 27 28 28 29 29 28 28 28 28 28 27 26 26 25 25 25 26 26 26 26 27 28 29
11 11 12 12 14 15 15 17 17 15 15 16 17 17 18 18 19 19 19 20 20 21 21 21 22 23 24 25 26 26 27 28 28 28 28 27 27 26 26 26 26 26 26 26 27 27 27 27 28
14 14 13 15 15 15 16 16 17 18 18 18 17 17 17 18 18 18 18 18 19 19 19 20 20 22 22 22 23 24 25 26 27 28 27 27 27 27 28 27 26 26 25 26 26 27 27 27 28
15 15 15 15 15 15 16 17 18 18 18 18 18 17 17 17 17 18 17 18 18 18 19 19 20 20 21 22 22 23 24 24 25 26 26 26 26 26 26 26 25 26 26 26 27 27 28 28 28
Wind_Direction
248 248 247 244 238 226 216 211 218 226 241 251 263 272 280 291 298 299 298 291 291 285 275 264 256 248 244 243 244 244 244 246 249 252 255 260 266 270 276 282 285 288 292 294 295 296 295 294 290
247 246 245 242 232 216 208 212 218 227 244 257 264 270 276 287 293 294 292 288 280 276 270 262 257 253 251 249 248 247 247 248 250 252 255 259 264 268 274 280 284 286 290 292 293 294 293 291 289
244 243 243 239 226 210 205 215 225 232 245 256 264 270 277 285 289 289 287 285 277 270 265 260 258 255 253 252 250 248 248 249 250 252 255 259 262 266 272 277 281 285 287 290 291 292 290 288 286
241 241 240 235 217 204 207 218 226 230 249 255 262 270 276 285 291 288 281 281 277 270 264 261 259 258 255 253 251 249 249 251 251 251 255 258 261 265 269 273 278 281 284 287 287 288 287 285 283
239 239 237 229 208 201 204 216 225 229 248 260 262 268 276 281 285 287 280 276 275 269 265 262 260 257 255 255 253 250 249 250 251 252 254 257 259 264 267 270 273 276 279 281 283 283 283 282 280
238 237 233 220 202 199 201 212 222 229 242 256 261 267 275 279 281 283 280 275 274 269 264 262 260 257 255 253 252 251 251 251 251 252 253 255 258 261 264 267 270 273 275 277 278 279 279 279 276
237 234 226 214 201 198 202 214 223 233 243 254 261 267 273 277 278 278 275 274 275 270 265 262 260 257 252 249 249 251 252 254 253 252 253 255 257 260 262 265 267 270 271 273 275 276 276 276 272
235 232 223 212 202 200 205 215 224 235 243 252 259 264 270 272 275 276 275 274 271 268 263 260 259 256 253 249 248 250 253 255 254 252 253 256 257 259 261 263 265 267 269 270 271 271 271 271 269
233 230 221 213 204 206 209 216 224 233 242 250 257 262 266 269 272 272 269 268 264 263 261 256 256 254 249 250 249 249 252 255 256 254 254 255 255 257 258 260 264 266 267 267 267 267 266 266 265
229 223 216 211 208 210 212 220 229 235 242 248 254 259 263 267 269 269 266 262 261 259 259 255 251 250 248 248 249 250 251 254 255 254 254 254 255 256 257 259 263 265 265 265 265 265 263 262 263
226 215 212 212 213 216 217 223 232 238 241 247 252 256 261 264 267 267 267 264 260 259 259 253 248 247 247 248 249 250 252 252 252 254 255 256 256 256 257 259 262 263 264 263 263 262 262 260 259
223 213 214 216 220 222 224 227 232 238 243 248 252 256 261 264 266 267 267 263 258 256 260 255 249 248 248 247 250 251 253 255 253 252 255 256 258 260 260 261 262 262 262 262 261 261 261 258 256
225 219 219 222 227 229 229 231 235 239 245 250 254 258 261 262 263 264 265 265 262 257 257 254 248 246 247 248 248 248 249 253 256 257 256 257 259 261 262 262 262 261 259 258 259 258 258 256 253
228 227 227 228 232 236 235 235 238 242 246 250 254 259 261 263 264 264 265 266 264 260 258 259 256 252 252 250 249 248 250 250 254 256 258 258 257 260 261 262 262 261 259 257 256 257 258 255 253
232 233 232 230 235 244 246 245 245 247 250 252 253 256 257 261 263 263 264 266 265 262 261 259 257 255 254 252 251 250 253 253 254 256 257 260 259 260 263 263 262 261 259 257 257 257 258 255 253
235 234 232 232 239 247 252 253 253 254 252 253 254 254 255 257 259 261 263 264 265 267 265 259 261 261 259 256 256 254 256 256 254 255 257 259 257 256 258 261 260 261 258 256 255 256 255 253 254
231 230 230 231 240 248 255 259 259 264 262 260 260 258 256 256 256 258 260 262 263 265 265 262 262 263 264 263 261 262 257 258 257 254 252 259 263 256 256 257 258 255 254 253 252 253 251 252 250
225 226 227 232 245 253 261 266 268 271 271 270 267 264 262 260 258 258 259 261 263 264 265 264 262 261 263 265 266 266 261 260 259 256 259 261 261 259 257 257 256 252 252 253 255 254 250 249 247
227 236 239 239 246 253 261 267 269 271 273 274 272 269 268 264 263 263 263 263 264 264 265 263 262 261 263 265 266 267 261 262 262 260 263 265 264 265 265 262 255 253 253 255 257 253 248 245 246
238 244 245 243 248 251 256 262 267 269 271 272 272 269 267 268 268 268 265 265 265 264 263 264 263 263 264 266 267 268 269 267 266 271 274 271 266 269 269 263 255 252 253 254 255 252 247 247 246
242 249 252 246 242 248 254 259 264 268 272 273 273 272 269 268 270 270 268 266 266 265 264 264 264 263 264 265 265 267 267 268 270 273 277 274 269 270 268 261 256 255 255 254 253 249 249 248 246
245 252 254 250 246 246 251 260 266 271 273 273 273 272 273 268 269 269 269 269 267 266 265 266 267 264 263 263 264 265 266 267 268 270 272 274 274 273 270 267 266 262 255 251 250 250 249 247 248
251 257 258 257 256 256 260 266 267 270 275 277 275 274 277 272 268 270 269 267 267 267 267 267 268 266 265 264 264 265 264 266 266 268 269 272 275 277 276 273 272 264 256 252 252 254 252 250 252
253 260 259 262 265 266 268 271 274 274 277 277 276 278 277 275 272 270 268 268 267 268 268 268 267 266 266 265 264 264 263 264 265 266 267 269 271 272 273 273 272 267 261 258 257 257 254 253 256
250 259 265 269 272 276 277 278 283 282 280 282 281 279 276 275 273 270 270 271 271 270 269 268 266 265 264 264 264 264 263 262 263 265 266 267 268 268 270 271 270 266 263 262 261 260 258 258 259
252 261 270 280 282 286 285 290 291 291 292 289 286 282 279 279 277 275 273 273 273 273 272 269 266 263 263 263 263 263 262 262 262 263 264 266 267 268 268 269 267 267 265 263 262 262 264 264 264
257 259 269 279 284 289 293 296 300 297 299 299 296 291 289 286 282 281 278 276 275 275 274 271 267 265 265 264 264 263 261 260 260 261 263 265 266 266 265 264 265 266 264 263 263 264 265 265 266
254 255 263 272 284 292 298 304 306 303 308 308 303 297 295 291 288 287 281 277 277 276 275 273 268 266 265 263 263 262 261 260 260 262 265 266 266 264 264 265 265 265 263 262 262 264 265 266 268
254 259 268 273 280 292 302 308 311 307 308 308 305 303 299 295 290 287 283 280 279 276 274 271 269 266 265 264 263 261 260 260 260 263 265 265 266 265 263 264 265 266 265 264 264 265 267 269 271
259 261 268 274 281 290 298 305 311 309 307 306 306 304 304 298 293 293 291 283 277 275 273 272 271 268 266 264 263 262 260 261 261 262 263 263 264 262 261 263 263 265 264 264 266 267 268 269 270
Height
5880 5882 5883 5886 5888 5889 5889 5889 5889 5889 5889 5890 5891 5891 5891 5892 5893 5895 5894 5892 5893 5893 5893 5894 5895 5896 5897 5898 5899 5900 5900 5901 5902 5902 5903 5903 5903 5903 5903 5904 5904 5903 5903 5903 5902 5901 5900 5900 5899
5877 5878 5880 5882 5884 5885 5886 5886 5886 5886 5887 5888 5888 5888 5889 5890 5890 5891 5890 5890 5891 5891 5892 5893 5893 5894 5895 5896 5897 5898 5898 5899 5900 5901 5901 5901 5902 5902 5902 5902 5902 5902 5902 5901 5900 5900 5899 5899 5898
5873 5874 5876 5879 5881 5883 5883 5883 5883 5883 5884 5885 5885 5885 5886 5887 5888 5888 5888 5888 5888 5889 5889 5890 5891 5892 5893 5894 5895 5896 5896 5897 5898 5898 5899 5900 5900 5900 5901 5901 5901 5901 5900 5900 5899 5898 5898 5897 5897
5869 5870 5873 5876 5878 5879 5880 5880 5879 5879 5881 5881 5881 5882 5883 5885 5885 5886 5885 5885 5886 5886 5887 5888 5888 5889 5890 5891 5892 5893 5894 5895 5895 5896 5897 5897 5898 5898 5899 5899 5899 5899 5898 5898 5897 5897 5896 5896 5895
5864 5866 5868 5871 5874 5875 5876 5876 5875 5875 5877 5878 5878 5878 5879 5882 5883 5883 5883 5882 5883 5883 5884 5884 5885 5886 5887 5888 5889 5890 5891 5892 5893 5893 5894 5895 5895 5896 5896 5896 5896 5896 5896 5896 5895 5895 5894 5894 5894
5860 5862 5865 5867 5869 5871 5871 5871 5871 5872 5872 5874 5874 5874 5875 5878 5880 5880 5880 5880 5880 5880 5880 5880 5881 5882 5883 5884 5885 5886 5887 5888 5889 5890 5891 5892 5892 5893 5893 5893 5894 5894 5894 5893 5893 5892 5892 5892 5892
5856 5858 5860 5863 5865 5866 5867 5866 5867 5868 5869 5870 5870 5871 5872 5874 5876 5876 5877 5877 5877 5877 5877 5877 5878 5878 5879 5881 5882 5883 5883 5885 5886 5887 5887 5888 5888 5889 5889 5889 5890 5890 5890 5890 5890 5890 5890 5890 5890
5851 5854 5856 5859 5861 5862 5862 5862 5864 5866 5867 5867 5867 5867 5869 5870 5872 5873 5873 5873 5873 5873 5874 5874 5874 5875 5876 5877 5878 5879 5880 5881 5882 5882 5883 5884 5884 5885 5885 5885 5886 5886 5887 5887 5887 5887 5887 5887 5887
5847 5851 5852 5855 5856 5856 5856 5858 5860 5861 5863 5864 5864 5864 5865 5866 5867 5868 5869 5870 5869 5869 5869 5870 5870 5871 5872 5873 5874 5875 5876 5876 5877 5878 5878 5879 5880 5880 5880 5881 5882 5882 5882 5882 5883 5883 5883 5883 5883
5843 5846 5849 5850 5850 5851 5852 5854 5856 5858 5859 5860 5860 5860 5861 5861 5862 5863 5864 5865 5865 5865 5865 5865 5866 5866 5867 5868 5869 5870 5871 5871 5872 5873 5874 5874 5875 5875 5876 5876 5877 5877 5878 5878 5878 5878 5879 5879 5879
5839 5842 5843 5844 5845 5846 5848 5849 5851 5853 5855 5855 5855 5856 5856 5856 5857 5858 5859 5860 5861 5861 5860 5861 5861 5862 5863 5863 5864 5866 5867 5867 5867 5868 5868 5869 5870 5870 5871 5871 5872 5872 5873 5873 5873 5874 5874 5875 5875
5835 5837 5838 5839 5841 5843 5844 5845 5847 5848 5850 5851 5851 5852 5852 5852 5852 5852 5853 5854 5855 5856 5855 5855 5856 5857 5858 5858 5859 5860 5861 5862 5862 5863 5863 5864 5865 5865 5866 5866 5866 5867 5867 5868 5868 5869 5869 5870 5871
5831 5833 5834 5835 5837 5839 5840 5841 5842 5843 5845 5845 5846 5847 5847 5848 5847 5847 5847 5847 5849 5851 5851 5851 5851 5852 5853 5853 5853 5855 5855 5856 5856 5857 5858 5858 5859 5860 5860 5860 5860 5861 5861 5861 5862 5863 5864 5865 5866
5828 5829 5831 5832 5833 5834 5836 5837 5838 5839 5840 5840 5841 5841 5842 5842 5843 5842 5842 5842 5843 5845 5845 5844 5844 5846 5847 5847 5848 5849 5849 5849 5850 5851 5852 5853 5853 5853 5854 5854 5855 5855 5855 5855 5856 5857 5858 5860 5861
5824 5827 5828 5829 5830 5830 5831 5833 5834 5834 5834 5835 5835 5836 5836 5837 5837 5837 5836 5836 5837 5838 5839 5839 5839 5840 5840 5841 5842 5842 5842 5843 5844 5845 5846 5846 5847 5847 5848 5848 5848 5849 5849 5850 5850 5851 5853 5854 5856
5821 5823 5824 5825 5825 5826 5827 5828 5828 5828 5829 5829 5830 5830 5831 5831 5831 5831 5831 5831 5831 5832 5833 5833 5834 5834 5835 5836 5837 5836 5837 5836 5836 5838 5838 5839 5840 5841 5841 5842 5842 5842 5843 5844 5845 5846 5847 5849 5850
5818 5819 5820 5821 5821 5821 5821 5822 5822 5822 5823 5824 5824 5825 5825 5826 5826 5826 5826 5825 5826 5827 5827 5828 5829 5829 5829 5829 5830 5830 5830 5830 5830 5831 5832 5833 5834 5835 5835 5835 5836 5836 5837 5839 5840 5841 5842 5843 5845
5814 5815 5816 5816 5816 5816 5817 5816 5817 5817 5818 5818 5819 5819 5819 5819 5820 5820 5820 5820 5820 5821 5821 5822 5822 5823 5823 5824 5825 5824 5825 5825 5824 5825 5826 5827 5828 5828 5828 5829 5830 5830 5832 5833 5834 5835 5836 5838 5840
5810 5811 5812 5813 5812 5812 5812 5812 5812 5813 5813 5813 5813 5813 5813 5813 5813 5814 5814 5814 5814 5815 5815 5815 5816 5817 5818 5819 5819 5819 5819 5819 5820 5820 5821 5822 5822 5823 5823 5824 5824 5824 5826 5827 5828 5830 5830 5832 5834
5807 5808 5808 5809 5809 5809 5808 5808 5809 5808 5808 5808 5807 5807 5807 5807 5807 5807 5808 5808 5808 5809 5809 5809 5810 5810 5811 5812 5813 5814 5814 5814 5814 5815 5816 5817 5818 5818 5818 5818 5818 5819 5820 5821 5822 5823 5825 5826 5827
5804 5804 5805 5805 5806 5805 5805 5805 5805 5803 5803 5802 5802 5801 5801 5801 5801 5801 5801 5801 5801 5801 5801 5802 5803 5804 5805 5806 5807 5808 5808 5808 5808 5810 5811 5812 5812 5813 5813 5812 5813 5813 5815 5816 5817 5818 5819 5820 5821
5800 5801 5801 5802 5802 5802 5802 5801 5801 5798 5797 5796 5796 5795 5795 5796 5796 5795 5795 5794 5794 5794 5794 5794 5796 5797 5798 5799 5800 5802 5802 5803 5803 5804 5806 5807 5807 5807 5807 5807 5807 5808 5809 5811 5812 5812 5813 5814 5815
5797 5797 5798 5798 5798 5798 5798 5797 5797 5794 5792 5791 5790 5790 5789 5789 5789 5789 5788 5788 5788 5788 5788 5789 5789 5790 5791 5792 5794 5795 5796 5796 5797 5799 5800 5801 5802 5802 5803 5803 5803 5803 5803 5805 5806 5807 5808 5808 5809
5794 5795 5794 5794 5794 5795 5794 5793 5791 5789 5787 5786 5785 5784 5784 5783 5783 5782 5781 5781 5781 5781 5781 5781 5782 5783 5784 5786 5787 5788 5789 5790 5791 5793 5794 5795 5796 5796 5797 5797 5797 5797 5798 5799 5800 5801 5802 5802 5803
5791 5791 5792 5791 5791 5790 5789 5787 5786 5784 5783 5782 5780 5779 5777 5776 5776 5776 5775 5775 5775 5775 5775 5774 5775 5776 5777 5779 5780 5781 5782 5784 5785 5786 5787 5788 5789 5790 5790 5791 5791 5792 5792 5792 5793 5794 5795 5796 5797
5787 5788 5789 5788 5787 5786 5785 5782 5782 5780 5778 5776 5775 5773 5772 5772 5771 5770 5769 5769 5769 5768 5767 5768 5768 5769 5770 5771 5773 5774 5775 5777 5778 5779 5780 5782 5782 5783 5783 5784 5785 5785 5786 5787 5787 5788 5788 5789 5790
5784 5784 5785 5785 5783 5782 5781 5779 5777 5775 5774 5773 5771 5769 5768 5767 5766 5765 5764 5764 5763 5762 5761 5761 5762 5763 5763 5765 5766 5767 5768 5770 5771 5772 5773 5774 5775 5776 5777 5777 5778 5778 5779 5780 5781 5781 5782 5782 5782
5782 5781 5781 5781 5780 5779 5778 5776 5775 5772 5770 5769 5767 5766 5764 5762 5761 5760 5759 5758 5757 5757 5756 5755 5755 5756 5757 5758 5759 5760 5761 5762 5764 5765 5766 5767 5768 5769 5770 5770 5771 5772 5772 5773 5773 5774 5775 5775 5775
5778 5779 5778 5777 5777 5775 5774 5775 5771 5769 5767 5765 5763 5761 5759 5758 5756 5755 5754 5752 5751 5751 5750 5750 5750 5750 5751 5751 5752 5753 5754 5755 5757 5758 5759 5760 5761 5761 5762 5763 5764 5764 5765 5765 5766 5767 5767 5767 5767
5775 5775 5775 5775 5773 5772 5770 5772 5767 5765 5762 5760 5758 5756 5754 5753 5751 5750 5748 5747 5746 5745 5745 5744 5744 5744 5744 5745 5746 5747 5748 5749 5750 5751 5752 5752 5753 5754 5755 5755 5756 5757 5757 5758 5759 5759 5759 5759 5759